Location: Newark
(41.9364°N, 2.8061°E)
Time: 07:01:00
(UTC+00:00)

Tiangong - Visible Passes

Search period start: 04 October 2022 00:00
Search period end: 14 October 2022 00:00
Orbit: 383 x 386 km, 41.5° (Epoch: 03 October)

Date Brightness Start Highest point End Pass type
(mag) Time Alt. Az. Time Alt. Az. Time Alt. Az.
06 Oct 0.7 19:11:56 10° SSW 19:12:05 11° SSW 19:12:05 11° SSW visible
07 Oct 0.1 18:13:21 10° S 18:14:44 12° SSE 18:15:29 12° SE visible
08 Oct -1.0 18:48:30 10° SW 18:50:57 30° S 18:50:57 30° S visible
09 Oct -0.4 17:49:12 10° SSW 17:51:37 20° SSE 17:54:02 10° ESE visible
09 Oct 0.2 19:25:00 10° WSW 19:26:17 22° WSW 19:26:17 22° WSW visible
10 Oct -1.7 18:25:14 10° WSW 18:28:17 46° SSE 18:29:19 32° ESE visible
11 Oct -1.4 19:01:56 10° W 19:04:27 52° WSW 19:04:27 52° WSW visible
12 Oct -2.0 18:02:02 10° WSW 18:05:09 64° SSE 18:07:19 18° E visible
12 Oct 1.0 19:38:46 10° W 19:39:30 16° W 19:39:30 16° W visible
13 Oct -2.3 18:38:48 10° W 18:41:57 85° S 18:42:19 67° ESE visible
